ProjectID,Date,Electric Generation,Electric Utility Import,Facility Electric Load
,YYYY-MM-DD,kW,kW,kW
526,2017-11-01,0.0,,0.0
526,2017-11-02,0.0,,0.0
526,2017-11-03,0.0,,0.0
526,2017-11-04,0.0,,0.0
526,2017-11-05,0.0,,0.0
526,2017-11-06,0.0,,0.0
526,2017-11-07,0.0,,0.0
526,2017-11-08,0.0,,0.0
526,2017-11-09,0.0,,0.0
526,2017-11-10,0.0,,0.0
526,2017-11-11,0.0,,0.0
526,2017-11-12,0.0,,0.0
526,2017-11-13,0.0,,0.0
526,2017-11-14,0.0,,0.0
526,2017-11-15,0.0,,0.0
526,2017-11-16,0.0,,0.0
526,2017-11-17,0.0,,0.0
526,2017-11-18,0.0,,0.0
526,2017-11-19,0.0,,0.0
526,2017-11-20,0.0,,0.0
526,2017-11-21,0.0,,0.0
526,2017-11-22,0.0,,0.0
526,2017-11-23,0.0,,0.0
526,2017-11-24,0.0,,0.0
526,2017-11-25,0.0,,0.0
526,2017-11-26,0.0,,0.0
526,2017-11-27,8.407375000000004,0.0,8.407375000000004
526,2017-11-28,24.296500000000005,0.0,24.296500000000005
526,2017-11-29,42.21241666666668,0.0,42.21241666666668
526,2017-11-30,59.91358333333333,0.0,59.91358333333333
526,2017-12-01,59.910583333333335,0.0,59.910583333333335
526,2017-12-02,59.92249999999999,0.0,59.92249999999999
526,2017-12-03,59.9175,0.0,59.9175
526,2017-12-04,59.915458333333326,0.0,59.915458333333326
526,2017-12-05,59.91962499999999,0.0,59.91962499999999
526,2017-12-06,59.92062500000001,0.0,59.92062500000001
526,2017-12-07,59.941041666666656,0.0,59.941041666666656
526,2017-12-08,59.938708333333324,0.0,59.938708333333324
526,2017-12-09,59.94245833333333,0.0,59.94245833333333
526,2017-12-10,59.955541666666676,0.0,59.955541666666676
526,2017-12-11,59.93883333333333,0.0,59.93883333333333
526,2017-12-12,47.81166666666667,0.0,47.81166666666667
526,2017-12-13,46.21933333333333,0.0,46.21933333333333
526,2017-12-14,59.98095833333332,0.0,59.98095833333332
526,2017-12-15,59.980583333333335,0.0,59.980583333333335
526,2017-12-16,59.98075,0.0,59.98075
526,2017-12-17,59.96591666666666,0.0,59.96591666666666
526,2017-12-18,59.95129166666669,0.0,59.95129166666669
526,2017-12-19,59.942333333333345,0.0,59.942333333333345
526,2017-12-20,56.575708333333345,0.0,56.575708333333345
526,2017-12-21,59.96075,0.0,59.96075
526,2017-12-22,7.576875000000001,0.0,7.576875000000001
526,2017-12-23,0.0,0.0,0.0
526,2017-12-24,0.0,0.0,0.0
526,2017-12-25,0.0,0.0,0.0
526,2017-12-26,-0.0034166666666666672,0.0,-0.0034166666666666672
526,2017-12-27,-0.0068750000000000035,0.0,-0.0068750000000000035
526,2017-12-28,-0.006125000000000002,0.0,-0.006125000000000002
526,2017-12-29,-0.005666666666666668,0.0,-0.005666666666666668
526,2017-12-30,-0.006250000000000002,0.0,-0.006250000000000002
526,2017-12-31,-0.0062916666666666685,0.0,-0.0062916666666666685
526,2018-01-01,-0.005666666666666668,0.0,-0.005666666666666668
526,2018-01-02,-0.0027083333333333334,0.0,-0.0027083333333333334
526,2018-01-03,0.0,,0.0
526,2018-01-04,0.0,,0.0
526,2018-01-05,-0.00020833333333333335,0.0,-0.00020833333333333335
526,2018-01-06,0.0,,0.0
526,2018-01-07,0.0,,0.0
526,2018-01-08,0.0,,0.0
526,2018-01-09,30.109916666666663,0.0,30.109916666666663
526,2018-01-10,59.957458333333335,0.0,59.957458333333335
526,2018-01-11,59.95512500000001,0.0,59.95512500000001
526,2018-01-12,59.96233333333331,0.0,59.96233333333331
526,2018-01-13,59.967666666666666,0.0,59.967666666666666
526,2018-01-14,60.00695833333333,0.0,60.00695833333333
526,2018-01-15,59.99370833333334,0.0,59.99370833333334
526,2018-01-16,59.96675000000001,0.0,59.96675000000001
526,2018-01-17,59.95379166666666,0.0,59.95379166666666
526,2018-01-18,59.95183333333332,0.0,59.95183333333332
526,2018-01-19,59.96479166666666,0.0,59.96479166666666
526,2018-01-20,59.93716666666668,0.0,59.93716666666668
526,2018-01-21,59.95691666666667,0.0,59.95691666666667
526,2018-01-22,59.962624999999996,0.0,59.962624999999996
526,2018-01-23,59.914125000000006,0.0,59.914125000000006
526,2018-01-24,59.964666666666666,0.0,59.964666666666666
526,2018-01-25,59.91620833333334,0.0,59.91620833333334
526,2018-01-26,58.703916666666665,0.0,58.703916666666665
526,2018-01-27,59.92133333333334,0.0,59.92133333333334
526,2018-01-28,59.921166666666664,0.0,59.921166666666664
526,2018-01-29,59.93995833333333,0.0,59.93995833333333
526,2018-01-30,59.95608333333333,0.0,59.95608333333333
526,2018-01-31,57.956124999999986,0.0,57.956124999999986
526,2018-02-01,59.95395833333334,0.0,59.95395833333334
526,2018-02-02,59.97458333333333,0.0,59.97458333333333
526,2018-02-03,59.948,0.0,59.948
526,2018-02-04,59.97245833333334,0.0,59.97245833333334
526,2018-02-05,59.94316666666666,0.0,59.94316666666666
526,2018-02-06,59.95866666666665,0.0,59.95866666666665
526,2018-02-07,59.96016666666666,0.0,59.96016666666666
526,2018-02-08,59.972874999999995,0.0,59.972874999999995
526,2018-02-09,59.947083333333325,0.0,59.947083333333325
526,2018-02-10,59.945249999999994,0.0,59.945249999999994
526,2018-02-11,59.913791666666675,0.0,59.913791666666675
526,2018-02-12,59.922583333333314,0.0,59.922583333333314
526,2018-02-13,59.93866666666667,0.0,59.93866666666667
526,2018-02-14,59.937000000000005,0.0,59.937000000000005
526,2018-02-15,59.913999999999994,0.0,59.913999999999994
526,2018-02-16,59.89345833333332,0.0,59.89345833333332
526,2018-02-17,59.94908333333333,0.0,59.94908333333333
526,2018-02-18,59.950624999999995,0.0,59.950624999999995
526,2018-02-19,59.94770833333332,0.0,59.94770833333332
526,2018-02-20,59.92199999999999,0.0,59.92199999999999
526,2018-02-21,59.853166666666674,0.0,59.853166666666674
526,2018-02-22,59.92216666666666,0.0,59.92216666666666
526,2018-02-23,59.90970833333333,0.0,59.90970833333333
526,2018-02-24,59.92041666666666,0.0,59.92041666666666
526,2018-02-25,59.95366666666666,0.0,59.95366666666666
526,2018-02-26,59.93524999999999,0.0,59.93524999999999
526,2018-02-27,59.93245833333334,0.0,59.93245833333334
526,2018-02-28,59.91558333333334,0.0,59.91558333333334
526,2018-03-01,59.897,0.0,59.897
526,2018-03-02,59.967083333333335,0.0,59.967083333333335
526,2018-03-03,59.945833333333326,0.0,59.945833333333326
526,2018-03-04,59.939333333333344,0.0,59.939333333333344
526,2018-03-05,59.944583333333334,0.0,59.944583333333334
526,2018-03-06,57.27679166666667,0.0,57.27679166666667
526,2018-03-07,59.97754166666667,0.0,59.97754166666667
526,2018-03-08,59.977583333333335,0.0,59.977583333333335
526,2018-03-09,59.97270833333334,0.0,59.97270833333334
526,2018-03-10,59.97283333333332,0.0,59.97283333333332
526,2018-03-11,59.95441666666667,0.0,59.95441666666667
526,2018-03-12,59.958499999999994,0.0,59.958499999999994
526,2018-03-13,59.97437500000001,0.0,59.97437500000001
526,2018-03-14,59.98204166666665,0.0,59.98204166666665
526,2018-03-15,59.965208333333344,0.0,59.965208333333344
526,2018-03-16,56.060458333333315,0.0,56.060458333333315
526,2018-03-17,59.96970833333333,0.0,59.96970833333333
526,2018-03-18,59.972666666666676,0.0,59.972666666666676
526,2018-03-19,59.968791666666675,0.0,59.968791666666675
526,2018-03-20,59.96933333333334,0.0,59.96933333333334
526,2018-03-21,59.98095833333334,0.0,59.98095833333334
526,2018-03-22,59.94887499999999,0.0,59.94887499999999
526,2018-03-23,59.96212500000001,0.0,59.96212500000001
526,2018-03-24,59.96458333333333,0.0,59.96458333333333
526,2018-03-25,59.969833333333334,0.0,59.969833333333334
526,2018-03-26,59.946124999999995,0.0,59.946124999999995
526,2018-03-27,59.99325000000002,0.0,59.99325000000002
526,2018-03-28,59.96370833333333,0.0,59.96370833333333
526,2018-03-29,59.95270833333333,0.0,59.95270833333333
526,2018-03-30,59.94041666666667,0.0,59.94041666666667
526,2018-03-31,59.96737499999998,0.0,59.96737499999998
526,2018-04-01,59.94841666666667,0.0,59.94841666666667
526,2018-04-02,59.96291666666667,0.0,59.96291666666667
526,2018-04-03,59.97141666666666,0.0,59.97141666666666
526,2018-04-04,59.965166666666676,0.0,59.965166666666676
526,2018-04-05,59.986333333333334,0.0,59.986333333333334
526,2018-04-06,59.96362500000001,0.0,59.96362500000001
526,2018-04-07,59.94683333333334,0.0,59.94683333333334
526,2018-04-08,59.966625,0.0,59.966625
526,2018-04-09,59.96462500000001,0.0,59.96462500000001
526,2018-04-10,59.958708333333334,0.0,59.958708333333334
526,2018-04-11,59.97045833333332,0.0,59.97045833333332
526,2018-04-12,59.96816666666666,0.0,59.96816666666666
526,2018-04-13,59.908666666666655,0.0,59.908666666666655
526,2018-04-14,59.89895833333333,0.0,59.89895833333333
526,2018-04-15,59.955999999999996,0.0,59.955999999999996
526,2018-04-16,59.97708333333333,0.0,59.97708333333333
526,2018-04-17,59.96854166666666,0.0,59.96854166666666
526,2018-04-18,59.959875000000004,0.0,59.959875000000004
526,2018-04-19,59.9685,0.0,59.9685
526,2018-04-20,59.968500000000006,0.0,59.968500000000006
526,2018-04-21,59.950583333333334,0.0,59.950583333333334
526,2018-04-22,59.937541666666675,0.0,59.937541666666675
526,2018-04-23,59.94941666666666,0.0,59.94941666666666
526,2018-04-24,59.95137499999999,0.0,59.95137499999999
526,2018-04-25,59.939333333333344,0.0,59.939333333333344
526,2018-04-26,58.06058333333334,0.0,58.06058333333334
526,2018-04-27,59.94679166666666,0.0,59.94679166666666
526,2018-04-28,59.94608333333334,0.0,59.94608333333334
526,2018-04-29,59.94808333333333,0.0,59.94808333333333
526,2018-04-30,59.954041666666676,0.0,59.954041666666676
526,2018-05-01,59.90004166666666,0.0,59.90004166666666
526,2018-05-02,59.773208333333315,0.0,59.773208333333315
526,2018-05-03,59.77116666666668,0.0,59.77116666666668
526,2018-05-04,59.83170833333333,0.0,59.83170833333333
526,2018-05-05,48.73637499999998,0.0,48.73637499999998
526,2018-05-06,-0.0038333333333333357,0.0,-0.0038333333333333357
526,2018-05-07,0.6813333333333329,0.0,0.6813333333333329
526,2018-05-08,-0.0062916666666666685,0.0,-0.0062916666666666685
526,2018-05-09,-0.006208333333333336,0.0,-0.006208333333333336
526,2018-05-10,-0.005875000000000002,0.0,-0.005875000000000002
526,2018-05-11,-0.006500000000000002,0.0,-0.006500000000000002
526,2018-05-12,-0.006500000000000003,0.0,-0.006500000000000003
526,2018-05-13,-0.0056250000000000015,0.0,-0.0056250000000000015
526,2018-05-14,32.099374999999995,0.0,32.099374999999995
526,2018-05-15,43.66949999999999,0.0,43.66949999999999
526,2018-05-16,28.809916666666666,0.0,28.809916666666666
526,2018-05-17,59.87295833333332,0.0,59.87295833333332
526,2018-05-18,59.877708333333324,0.0,59.877708333333324
526,2018-05-19,59.90154166666665,0.0,59.90154166666665
526,2018-05-20,59.81504166666667,0.0,59.81504166666667
526,2018-05-21,59.83962499999999,0.0,59.83962499999999
526,2018-05-22,59.86483333333333,0.0,59.86483333333333
526,2018-05-23,59.83175,0.0,59.83175
526,2018-05-24,59.806041666666665,0.0,59.806041666666665
526,2018-05-25,59.73370833333335,0.0,59.73370833333335
526,2018-05-26,59.74087500000002,0.0,59.74087500000002
526,2018-05-27,11.328000000000003,0.0,11.328000000000003
526,2018-05-28,-0.007166666666666671,0.0,-0.007166666666666671
526,2018-05-29,43.0565,0.0,43.0565
526,2018-05-30,37.74587500000002,0.0,37.74587500000002
526,2018-05-31,2.3684999999999996,0.0,2.3684999999999996
526,2018-06-01,4.018625000000002,0.0,4.018625000000002
526,2018-06-02,-0.006958333333333337,0.0,-0.006958333333333337
526,2018-06-03,-0.007500000000000004,0.0,-0.007500000000000004
526,2018-06-04,5.7999166666666655,0.0,5.7999166666666655
526,2018-06-05,34.703583333333334,0.0,34.703583333333334
526,2018-06-06,59.906125,0.0,59.906125
526,2018-06-07,59.911,0.0,59.911
526,2018-06-08,59.86175,0.0,59.86175
526,2018-06-09,59.85991666666666,0.0,59.85991666666666
526,2018-06-10,15.455125000000002,0.0,15.455125000000002
526,2018-06-11,42.93320833333333,0.0,42.93320833333333
526,2018-06-12,59.91045833333333,0.0,59.91045833333333
526,2018-06-13,59.86979166666668,0.0,59.86979166666668
526,2018-06-14,59.82429166666666,0.0,59.82429166666666
526,2018-06-15,59.85883333333334,0.0,59.85883333333334
526,2018-06-16,19.559416666666667,0.0,19.559416666666667
526,2018-06-17,-0.035208333333333335,0.0,-0.035208333333333335
526,2018-06-18,41.55570833333333,0.0,41.55570833333333
526,2018-06-19,29.36562499999999,0.0,29.36562499999999
526,2018-06-20,-0.005208333333333335,0.0,-0.005208333333333335
526,2018-06-21,-0.007458333333333337,0.0,-0.007458333333333337
526,2018-06-22,29.32341666666667,0.0,29.32341666666667
526,2018-06-23,59.902208333333334,0.0,59.902208333333334
526,2018-06-24,59.82654166666665,0.0,59.82654166666665
526,2018-06-25,59.83608333333334,0.0,59.83608333333334
526,2018-06-26,59.87641666666668,0.0,59.87641666666668
526,2018-06-27,59.855624999999996,0.0,59.855624999999996
526,2018-06-28,59.840166666666676,0.0,59.840166666666676
526,2018-06-29,59.747583333333324,0.0,59.747583333333324
526,2018-06-30,59.72375,0.0,59.72375
526,2018-07-01,59.66524999999999,0.0,59.66524999999999
526,2018-07-02,59.71254166666666,0.0,59.71254166666666
526,2018-07-03,36.264375,0.0,36.264375
526,2018-07-04,-0.008583333333333337,0.0,-0.008583333333333337
526,2018-07-05,-0.016125000000000004,0.0,-0.016125000000000004
526,2018-07-06,-0.008500000000000002,0.0,-0.008500000000000002
526,2018-07-07,-0.008708333333333337,0.0,-0.008708333333333337
526,2018-07-08,-0.011291666666666672,0.0,-0.011291666666666672
526,2018-07-09,-0.028708333333333336,0.0,-0.028708333333333336
526,2018-07-10,-0.05049999999999997,0.0,-0.05049999999999997
526,2018-07-11,29.065375,0.0,29.065375
526,2018-07-12,59.81991666666667,0.0,59.81991666666667
526,2018-07-13,59.81954166666666,0.0,59.81954166666666
526,2018-07-14,28.568916666666667,0.0,28.568916666666667
526,2018-07-15,-0.008333333333333335,0.0,-0.008333333333333335
526,2018-07-16,43.338249999999995,0.0,43.338249999999995
526,2018-07-17,59.773999999999994,0.0,59.773999999999994
526,2018-07-18,31.08016666666666,0.0,31.08016666666666
526,2018-07-19,43.10391666666667,0.0,43.10391666666667
526,2018-07-20,25.258083333333328,0.0,25.258083333333328
526,2018-07-21,-0.009291666666666669,0.0,-0.009291666666666669
526,2018-07-22,-0.008208333333333337,0.0,-0.008208333333333337
526,2018-07-23,25.337166666666665,0.0,25.337166666666665
526,2018-07-24,-0.008250000000000004,0.0,-0.008250000000000004
526,2018-07-25,-0.007750000000000004,0.0,-0.007750000000000004
526,2018-07-26,3.4980000000000007,0.0,3.4980000000000007
526,2018-07-27,1.9367916666666665,0.0,1.9367916666666665
526,2018-07-28,-0.009708333333333336,0.0,-0.009708333333333336
526,2018-07-29,-0.009875000000000004,0.0,-0.009875000000000004
526,2018-07-30,7.008708333333334,0.0,7.008708333333334
526,2018-07-31,-0.008500000000000002,0.0,-0.008500000000000002
526,2018-08-01,-0.008125000000000004,0.0,-0.008125000000000004
526,2018-08-02,-0.013958333333333336,0.0,-0.013958333333333336
526,2018-08-03,-0.008333333333333337,0.0,-0.008333333333333337
526,2018-08-04,-0.008166666666666671,0.0,-0.008166666666666671
526,2018-08-05,-0.03245833333333334,0.0,-0.03245833333333334
526,2018-08-06,15.692000000000002,0.0,15.692000000000002
526,2018-08-07,-0.02116666666666667,0.0,-0.02116666666666667
526,2018-08-08,-0.0325,0.0,-0.0325
526,2018-08-09,-0.008250000000000004,0.0,-0.008250000000000004
526,2018-08-10,-0.02095833333333334,0.0,-0.02095833333333334
526,2018-08-11,-0.008500000000000002,0.0,-0.008500000000000002
526,2018-08-12,-0.008125000000000005,0.0,-0.008125000000000005
526,2018-08-13,-0.008375000000000002,0.0,-0.008375000000000002
526,2018-08-14,4.083708333333333,0.0,4.083708333333333
526,2018-08-15,-0.007041666666666669,0.0,-0.007041666666666669
526,2018-08-16,-0.008041666666666671,0.0,-0.008041666666666671
526,2018-08-17,-0.008083333333333336,0.0,-0.008083333333333336
526,2018-08-18,-0.008375000000000002,0.0,-0.008375000000000002
526,2018-08-19,-0.009000000000000003,0.0,-0.009000000000000003
526,2018-08-20,-0.008708333333333337,0.0,-0.008708333333333337
526,2018-08-21,-0.00854166666666667,0.0,-0.00854166666666667
526,2018-08-22,6.368333333333336,0.0,6.368333333333336
526,2018-08-23,-0.008458333333333337,0.0,-0.008458333333333337
526,2018-08-24,-0.00804166666666667,0.0,-0.00804166666666667
526,2018-08-25,-0.008083333333333336,0.0,-0.008083333333333336
526,2018-08-26,-0.007708333333333338,0.0,-0.007708333333333338
526,2018-08-27,9.69175,0.0,9.69175
526,2018-08-28,-0.16966666666666666,0.0,-0.16966666666666666
526,2018-08-29,-0.1702083333333333,0.0,-0.1702083333333333
526,2018-08-30,-0.031875,0.0,-0.031875
526,2018-08-31,-0.009083333333333336,0.0,-0.009083333333333336
526,2018-09-01,-0.008833333333333337,0.0,-0.008833333333333337
526,2018-09-02,-0.008625000000000002,0.0,-0.008625000000000002
526,2018-09-03,-0.01979166666666667,0.0,-0.01979166666666667
526,2018-09-04,13.956625,0.0,13.956625
526,2018-09-05,-0.019750000000000004,0.0,-0.019750000000000004
526,2018-09-06,-0.02891666666666667,0.0,-0.02891666666666667
526,2018-09-07,-0.009000000000000003,0.0,-0.009000000000000003
526,2018-09-08,-0.008708333333333335,0.0,-0.008708333333333335
526,2018-09-09,-0.007291666666666671,0.0,-0.007291666666666671
526,2018-09-10,-0.007041666666666671,0.0,-0.007041666666666671
526,2018-09-11,-0.00754166666666667,0.0,-0.00754166666666667
526,2018-09-12,-0.008541666666666668,0.0,-0.008541666666666668
526,2018-09-13,-0.008833333333333335,0.0,-0.008833333333333335
526,2018-09-14,0.7345416666666663,0.0,0.7345416666666663
526,2018-09-15,-0.008333333333333337,0.0,-0.008333333333333337
526,2018-09-16,-0.0077916666666666716,0.0,-0.0077916666666666716
526,2018-09-17,-0.008541666666666668,0.0,-0.008541666666666668
526,2018-09-18,-0.008416666666666668,0.0,-0.008416666666666668
526,2018-09-19,-0.008333333333333337,0.0,-0.008333333333333337
526,2018-09-20,-0.008291666666666668,0.0,-0.008291666666666668
526,2018-09-21,-0.008250000000000002,0.0,-0.008250000000000002
526,2018-09-22,-0.008125000000000002,0.0,-0.008125000000000002
526,2018-09-23,-0.007458333333333338,0.0,-0.007458333333333338
526,2018-09-24,-0.007041666666666669,0.0,-0.007041666666666669
526,2018-09-25,-0.0070833333333333364,0.0,-0.0070833333333333364
526,2018-09-26,-0.007833333333333336,0.0,-0.007833333333333336
526,2018-09-27,-0.008250000000000004,0.0,-0.008250000000000004
526,2018-09-28,-0.007291666666666669,0.0,-0.007291666666666669
526,2018-09-29,-0.006708333333333336,0.0,-0.006708333333333336
526,2018-09-30,-0.0066666666666666706,0.0,-0.0066666666666666706
526,2018-10-01,-0.007458333333333338,0.0,-0.007458333333333338
526,2018-10-02,-0.00766666666666667,0.0,-0.00766666666666667
526,2018-10-03,10.162083333333337,0.0,10.162083333333337
526,2018-10-04,-0.007833333333333338,0.0,-0.007833333333333338
526,2018-10-05,-0.007583333333333338,0.0,-0.007583333333333338
526,2018-10-06,-0.00754166666666667,0.0,-0.00754166666666667
526,2018-10-07,-0.008041666666666671,0.0,-0.008041666666666671
526,2018-10-08,-0.008208333333333337,0.0,-0.008208333333333337
526,2018-10-09,-0.00791666666666667,0.0,-0.00791666666666667
526,2018-10-10,7.403291666666671,0.0,7.403291666666671
526,2018-10-11,-0.008833333333333335,0.0,-0.008833333333333335
526,2018-10-12,-0.007375000000000004,0.0,-0.007375000000000004
526,2018-10-13,-0.006458333333333337,0.0,-0.006458333333333337
526,2018-10-14,-0.005666666666666668,0.0,-0.005666666666666668
526,2018-10-15,-0.006166666666666668,0.0,-0.006166666666666668
526,2018-10-16,-0.006625000000000003,0.0,-0.006625000000000003
526,2018-10-17,-0.006750000000000003,0.0,-0.006750000000000003
526,2018-10-18,-0.006666666666666669,0.0,-0.006666666666666669
526,2018-10-19,-0.006625000000000002,0.0,-0.006625000000000002
526,2018-10-20,-0.006875000000000003,0.0,-0.006875000000000003
526,2018-10-21,-0.006666666666666669,0.0,-0.006666666666666669
526,2018-10-22,-0.006833333333333337,0.0,-0.006833333333333337
526,2018-10-23,-0.0066666666666666706,0.0,-0.0066666666666666706
526,2018-10-24,-0.007166666666666669,0.0,-0.007166666666666669
526,2018-10-25,-0.006708333333333337,0.0,-0.006708333333333337
526,2018-10-26,-0.006375000000000003,0.0,-0.006375000000000003
526,2018-10-27,-0.006500000000000002,0.0,-0.006500000000000002
526,2018-10-28,-0.006416666666666669,0.0,-0.006416666666666669
526,2018-10-29,-0.00641666666666667,0.0,-0.00641666666666667
526,2018-10-30,-0.006458333333333337,0.0,-0.006458333333333337
526,2018-10-31,4.575291666666666,0.0,4.575291666666666
526,2018-11-01,-0.006750000000000003,0.0,-0.006750000000000003
526,2018-11-02,12.852083333333333,0.0,12.852083333333333
526,2018-11-03,-0.006375000000000002,0.0,-0.006375000000000002
526,2018-11-04,-0.005750000000000002,0.0,-0.005750000000000002
526,2018-11-05,16.278208333333335,0.0,16.278208333333335
526,2018-11-06,11.407541666666672,0.0,11.407541666666672
526,2018-11-07,7.263208333333335,0.0,7.263208333333335
526,2018-11-08,4.953875000000001,0.0,4.953875000000001
526,2018-11-09,6.875291666666669,0.0,6.875291666666669
526,2018-11-10,-0.005166666666666668,0.0,-0.005166666666666668
526,2018-11-11,-0.004875000000000002,0.0,-0.004875000000000002
526,2018-11-12,-0.004833333333333335,0.0,-0.004833333333333335
526,2018-11-13,-0.004791666666666669,0.0,-0.004791666666666669
526,2018-11-14,27.684791666666666,0.0,27.684791666666666
526,2018-11-15,60.013666666666666,0.0,60.013666666666666
526,2018-11-16,31.867875000000012,0.0,31.867875000000012
526,2018-11-17,-0.0050833333333333355,0.0,-0.0050833333333333355
526,2018-11-18,-0.005458333333333335,0.0,-0.005458333333333335
526,2018-11-19,7.6987499999999995,0.0,7.6987499999999995
526,2018-11-20,5.395500000000001,0.0,5.395500000000001
526,2018-11-21,38.95820833333334,0.0,38.95820833333334
526,2018-11-22,60.00183333333334,0.0,60.00183333333334
526,2018-11-23,60.002708333333324,0.0,60.002708333333324
526,2018-11-24,23.494541666666667,0.0,23.494541666666667
526,2018-11-25,0.0,0.0,0.0
526,2018-11-26,-0.00020833333333333335,0.0,-0.00020833333333333335
526,2018-11-27,0.0,,0.0
526,2018-11-28,0.0,,0.0
526,2018-11-29,0.0,,0.0
526,2018-11-30,0.0,,0.0
526,2018-12-01,0.0,,0.0
526,2018-12-02,0.0,,0.0
526,2018-12-03,0.0,,0.0
526,2018-12-04,0.0,,0.0
526,2018-12-05,0.0,,0.0
526,2018-12-06,0.0,,0.0
526,2018-12-07,0.0,,0.0
526,2018-12-08,0.0,,0.0
526,2018-12-09,0.0,,0.0
526,2018-12-10,0.0,,0.0
526,2018-12-11,0.0,,0.0
526,2018-12-12,0.0,,0.0
526,2018-12-13,0.0,,0.0
526,2018-12-14,0.0,,0.0
526,2018-12-15,0.0,,0.0
526,2018-12-16,0.0,,0.0
526,2018-12-17,0.0,,0.0
526,2018-12-18,0.0,,0.0
526,2018-12-19,0.0,,0.0
526,2018-12-20,0.0,,0.0
526,2018-12-21,0.0,,0.0
526,2018-12-22,0.0,,0.0
526,2018-12-23,0.0,,0.0
526,2018-12-24,0.0,,0.0
526,2018-12-25,0.0,,0.0
526,2018-12-26,0.0,,0.0
526,2018-12-27,0.0,,0.0
526,2018-12-28,0.0,,0.0
526,2018-12-29,0.0,,0.0
526,2018-12-30,0.0,,0.0
526,2018-12-31,0.0,,0.0
526,2019-01-01,0.0,,0.0
526,2019-01-02,0.0,,0.0
526,2019-01-03,0.0,,0.0
526,2019-01-04,0.0,,0.0
526,2019-01-05,0.0,,0.0
526,2019-01-06,0.0,,0.0
526,2019-01-07,0.0,,0.0
526,2019-01-08,0.0,,0.0
526,2019-01-09,0.0,,0.0
526,2019-01-10,0.0,,0.0
526,2019-01-11,0.0,,0.0
526,2019-01-12,0.0,,0.0
526,2019-01-13,0.0,,0.0
526,2019-01-14,0.0,,0.0
526,2019-01-15,0.0,,0.0
526,2019-01-16,29.540791666666667,0.0,29.540791666666667
526,2019-01-17,59.98704166666667,0.0,59.98704166666667
526,2019-01-18,59.99687499999999,0.0,59.99687499999999
526,2019-01-19,59.99466666666666,0.0,59.99466666666666
526,2019-01-20,59.98966666666666,0.0,59.98966666666666
526,2019-01-21,59.997000000000014,0.0,59.997000000000014
526,2019-01-22,59.99716666666666,0.0,59.99716666666666
526,2019-01-23,58.496124999999985,0.0,58.496124999999985
526,2019-01-24,39.774125,0.0,39.774125
526,2019-01-25,59.99533333333333,0.0,59.99533333333333
526,2019-01-26,59.993125,0.0,59.993125
526,2019-01-27,59.988625000000006,0.0,59.988625000000006
526,2019-01-28,59.99758333333333,0.0,59.99758333333333
526,2019-01-29,60.00020833333334,0.0,60.00020833333334
526,2019-01-30,53.99520833333333,0.0,53.99520833333333
526,2019-01-31,59.995958333333334,0.0,59.995958333333334
526,2019-02-01,60.003166666666665,0.0,60.003166666666665